Find Starlink 3234

NORAD ID: 50815 Int'l Des: 2022-001 Owner: SPXS Country: US Constellation: starlink operational
LEOCIRCULAR

Live Position

Loading 3D Globe...

About Starlink 3234

Description loading...

Upcoming Passes

Passes for default location (London). Set your location on the main map for personalized predictions.

Altitude History

Loading altitude history...

Two-Line Element Set

1 50815U 22001N 26120.71590252 -.00000076 00000-0 13320-4 0 9993
2 50815 53.2179 295.5663 0001357 98.0049 262.1097 15.08835897238262
Epoch: Apr 30, 2026 • Age: 20 hours

Current Status

Altitude 559.1 km
Velocity 7.58 km/s
Sub-Earth Point -53.07°S, 132.46°E
Launch Date Jan 6, 2022
Age 4.3 years
Type internet

Technical Details

Classification Payload
Mass 297.00 kg
Dry Mass 275.00 kg
Total Mass 297.00 kg
Length 0.20 m
Diameter 2.80 m
Span 9.00 m
Shape Box + pan
Manufacturer SPXS
Bus Type Starlink
Phase Status In Orbit
Owner/State SPXS/US

Most Searched